^^
Meteo Knjazevac Station Historical Data
Daily Summary for January 16, 2021 Units:  Metric    English   Both
Daily Weekly Monthly Yearly Custom
  High: Low: Average:
Temperature: 2.6 °C 0.8 °C 1.5 °C
Dew Point: 1.6 °C -0.3 °C 0.6 °C
Humidity: 95% 91% 94%
Wind Speed: 12.9km/h 0km/h 4.7km/h
Wind Gust: 22.5km/h - -
Wind- - SSW
Pressure: 1026.6 hPa 1025.6 hPa -
Precipitation: 0 mm    
Historical Graphs
 
 
Tabular Data for January 16, 2021
Time Temperature Dew Point Pressure Wind Wind Speed Wind Gust Humidity Rainfall Rate (Hourly) solar Conditions
00:00 1.1 °C -0.2 °C 1026.6 hPa SSW 3.2 km/h 6.4 km/h 91% 0 mm 0 W/m2
00:10 1 °C -0.3 °C 1026.6 hPa SSW 1.6 km/h 8 km/h 91% 0 mm 0 W/m2
00:20 1 °C -0.3 °C 1026.6 hPa South 3.2 km/h 8 km/h 91% 0 mm 0 W/m2
00:30 1 °C -0.3 °C 1026.6 hPa SSW 4.8 km/h 9.7 km/h 91% 0 mm 0 W/m2
00:40 1 °C -0.3 °C 1026.6 hPa SSW 3.2 km/h 9.7 km/h 91% 0 mm 0 W/m2
00:50 1 °C -0.3 °C 1026.6 hPa SSW 3.2 km/h 8 km/h 91% 0 mm 0 W/m2
01:00 1 °C -0.3 °C 1026.6 hPa South 1.6 km/h 9.7 km/h 91% 0 mm 0 W/m2
01:10 1 °C -0.3 °C 1026.6 hPa South 3.2 km/h 8 km/h 91% 0 mm 0 W/m2
01:20 1 °C -0.3 °C 1026.3 hPa SSW 1.6 km/h 4.8 km/h 91% 0 mm 0 W/m2
01:30 0.9 °C -0.1 °C 1026.3 hPa Calm   6.4 km/h 93% 0 mm 0 W/m2
01:40 0.9 °C -0.1 °C 1026.3 hPa NE 1.6 km/h 4.8 km/h 93% 0 mm 0 W/m2
01:50 0.8 °C -0.2 °C 1026.3 hPa SE 3.2 km/h 4.8 km/h 93% 0 mm 0 W/m2
02:00 0.9 °C -0.1 °C 1026.3 hPa SE 1.6 km/h 4.8 km/h 93% 0 mm 0 W/m2
02:10 0.9 °C -0.1 °C 1026.3 hPa SE 3.2 km/h 8 km/h 93% 0 mm 0 W/m2
02:20 0.9 °C -0.1 °C 1026.3 hPa SSE 3.2 km/h 6.4 km/h 93% 0 mm 0 W/m2
02:30 1 °C 0.2 °C 1026.3 hPa South 3.2 km/h 8 km/h 94% 0 mm 0 W/m2
02:40 1 °C 0.2 °C 1026.3 hPa SSW 4.8 km/h 6.4 km/h 94% 0 mm 0 W/m2
02:50 1.1 °C 0.2 °C 1026.3 hPa SW 3.2 km/h 6.4 km/h 94% 0 mm 0 W/m2
03:00 1.1 °C 0.2 °C 1026 hPa SSW 3.2 km/h 6.4 km/h 94% 0 mm 0 W/m2
03:10 1.1 °C 0.3 °C 1026 hPa SW 3.2 km/h 8 km/h 94% 0 mm 0 W/m2
03:20 1.2 °C 0.3 °C 1026 hPa SW 4.8 km/h 9.7 km/h 94% 0 mm 0 W/m2
03:30 1.3 °C 0.4 °C 1026 hPa SW 3.2 km/h 9.7 km/h 94% 0 mm 0 W/m2
03:40 1.3 °C 0.6 °C 1026 hPa SW 3.2 km/h 6.4 km/h 95% 0 mm 0 W/m2
03:50 1.3 °C 0.4 °C 1026 hPa WSW 1.6 km/h 4.8 km/h 94% 0 mm 0 W/m2
04:00 1.3 °C 0.4 °C 1026 hPa South 1.6 km/h 6.4 km/h 94% 0 mm 0 W/m2
04:10 1.4 °C 0.7 °C 1026 hPa SSW 1.6 km/h 6.4 km/h 95% 0 mm 0 W/m2
04:20 1.4 °C 0.7 °C 1026 hPa WSW 3.2 km/h 4.8 km/h 95% 0 mm 0 W/m2
04:30 1.4 °C 0.7 °C 1026 hPa WSW 3.2 km/h 9.7 km/h 95% 0 mm 0 W/m2
04:40 1.5 °C 0.8 °C 1026 hPa SW 4.8 km/h 8 km/h 95% 0 mm 0 W/m2
04:50 1.5 °C 0.8 °C 1026 hPa SW 9.7 km/h 12.9 km/h 95% 0 mm 0 W/m2
05:00 1.6 °C 0.9 °C 1026 hPa SW 4.8 km/h 12.9 km/h 95% 0 mm 0 W/m2
05:10 1.6 °C 0.9 °C 1026 hPa SW 3.2 km/h 9.7 km/h 95% 0 mm 0 W/m2
05:20 1.6 °C 0.9 °C 1026 hPa SW 3.2 km/h 6.4 km/h 95% 0 mm 0 W/m2
05:30 1.6 °C 0.9 °C 1026 hPa South 3.2 km/h 6.4 km/h 95% 0 mm 0 W/m2
05:40 1.6 °C 0.9 °C 1026 hPa SSW 3.2 km/h 6.4 km/h 95% 0 mm 0 W/m2
05:50 1.6 °C 0.9 °C 1026 hPa SW 3.2 km/h 6.4 km/h 95% 0 mm 0 W/m2
06:00 1.6 °C 0.8 °C 1026 hPa SW 4.8 km/h 8 km/h 94% 0 mm 0 W/m2
06:10 1.7 °C 0.8 °C 1026 hPa WSW 3.2 km/h 9.7 km/h 94% 0 mm 0 W/m2
06:20 1.7 °C 0.8 °C 1026 hPa SW 4.8 km/h 9.7 km/h 94% 0 mm 0 W/m2
06:30 1.8 °C 0.9 °C 1026 hPa SW 4.8 km/h 11.3 km/h 94% 0 mm 0 W/m2
06:40 1.8 °C 0.9 °C 1026 hPa SW 3.2 km/h 11.3 km/h 94% 0 mm 0 W/m2
06:50 1.9 °C 1.1 °C 1026 hPa SW 4.8 km/h 12.9 km/h 94% 0 mm 0 W/m2
07:00 1.9 °C 1.1 °C 1026 hPa WSW 8 km/h 9.7 km/h 94% 0 mm 1 W/m2
07:10 1.9 °C 1.1 °C 1026 hPa SW 8 km/h 11.3 km/h 94% 0 mm 2 W/m2
07:20 1.9 °C 1.1 °C 1026 hPa SW 9.7 km/h 11.3 km/h 94% 0 mm 4 W/m2
07:30 2 °C 1.1 °C 1026 hPa SW 8 km/h 14.5 km/h 94% 0 mm 5 W/m2
07:40 2 °C 1.1 °C 1026 hPa SW 8 km/h 14.5 km/h 94% 0 mm 12 W/m2
07:50 2 °C 1.2 °C 1025.6 hPa SW 8 km/h 11.3 km/h 94% 0 mm 18 W/m2
08:00 2.1 °C 1.2 °C 1026 hPa WSW 4.8 km/h 9.7 km/h 94% 0 mm 24 W/m2
08:10 2.1 °C 1.2 °C 1026 hPa SW 4.8 km/h 11.3 km/h 94% 0 mm 26 W/m2
08:20 2.2 °C 1.3 °C 1026 hPa WSW 8 km/h 11.3 km/h 94% 0 mm 35 W/m2
08:30 2.4 °C 1.4 °C 1026 hPa WSW 11.3 km/h 19.3 km/h 93% 0 mm 65 W/m2
08:40 2.5 °C 1.5 °C 1026 hPa WSW 9.7 km/h 22.5 km/h 93% 0 mm 73 W/m2
08:50 2.6 °C 1.6 °C 1026 hPa WSW 12.9 km/h 19.3 km/h 93% 0 mm 82 W/m2
09:00 2.6 °C 1.6 °C 1026 hPa WSW 11.3 km/h 20.9 km/h 93% 0 mm 96 W/m2
Knjazevac, Serbia
Compliments of Weather Underground - 2 mb